Telluride, CO

12:01 AM MDT on July 22, 2017 (GMT -0600)
Telluride Regional

Weather History for KTEX - March, 2014

Change the Weather History Date:

Thursday, March 13, 2014

  Actual Average Record
Temperature  
Mean Temperature 33 °F -  
Max Temperature 42 °F 38 °F 55 °F (2007)
Min Temperature 24 °F 18 °F 12 °F (2006)
Degree Days  
Heating Degree Days 32    
Moisture  
Dew Point 15 °F    
Average Humidity 52    
Maximum Humidity 93    
Minimum Humidity 31    
Precipitation  
Precipitation 0.00 in - - ()
Sea Level Pressure  
Sea Level Pressure 30.14 in    
Wind  
Wind Speed 6 mph (SE)    
Max Wind Speed 12 mph    
Max Gust Speed -    
Visibility 10 miles    
Events Snow    
Averages and records for this station are not official NWS values.
T = Trace of Precipitation, MM = Missing Value Source: NWS Daily Summary

Daily Weather History Graph

Daily Weather History Graph

Search for Another Location

Airport or City:

Trip Planner

Search our weather history database for the weather conditions in past years. The results will help you decide how hot, cold, wet, or windy it might be!

Date:

Astronomy

Mar. 13, 2014 Rise Set
Actual Time 7:25 AM MDT 7:16 PM MDT
Civil Twilight 6:59 AM MDT 7:43 PM MDT
Nautical Twilight 6:29 AM MDT 8:13 PM MDT
Astronomical Twilight 5:58 AM MDT 8:44 PM MDT
Moon 4:47 PM MDT (3/13) 5:32 AM MDT (3/13)
Length of Visible Light 12h 43m
Length of Day
11h 51m
Waxing Gibbous, 92% of the Moon is Illuminated
Mar 13
Waxing Gibbous
Mar 16
Full
Mar 23
Last Quarter
Mar 30
New
Apr 7
First Quarter

Hourly Weather History & Observations

Time (MDT) Temp. Windchill Dew Point Humidity Pressure Visibility Wind Dir Wind Speed Gust Speed Precip Events Conditions
12:17 AM 28.4 °F 21.2 °F 10.4 °F 47% 30.27 in 10.0 mi ESE 6.9 mph - N/A   Clear
12:39 AM 26.6 °F 18.2 °F 8.6 °F 47% 30.26 in 10.0 mi ESE 8.1 mph - N/A   Clear
12:57 AM 26.6 °F 16.8 °F 8.6 °F 47% 30.25 in 10.0 mi ESE 10.4 mph - N/A   Clear
1:19 AM 26.6 °F 16.2 °F 8.6 °F 47% 30.25 in 10.0 mi SE 11.5 mph - N/A   Clear
1:37 AM 26.6 °F 16.8 °F 6.8 °F 43% 30.24 in 10.0 mi ESE 10.4 mph - N/A   Clear
1:57 AM 24.8 °F 17.9 °F 6.8 °F 46% 30.24 in 10.0 mi ESE 5.8 mph - N/A   Clear
2:19 AM 26.6 °F 18.2 °F 5.0 °F 40% 30.24 in 10.0 mi SE 8.1 mph - N/A   Clear
2:37 AM 26.6 °F 20.0 °F 6.8 °F 43% 30.24 in 10.0 mi ESE 5.8 mph - N/A   Clear
2:57 AM 24.8 °F 19.1 °F 6.8 °F 46% 30.23 in 10.0 mi SE 4.6 mph - N/A   Clear
3:17 AM 24.8 °F 15.3 °F 5.0 °F 43% 30.22 in 10.0 mi SE 9.2 mph - N/A   Clear
3:39 AM 24.8 °F 16.1 °F 5.0 °F 43% 30.22 in 10.0 mi SE 8.1 mph - N/A   Clear
4:17 AM 24.8 °F 17.9 °F 5.0 °F 43% 30.21 in 10.0 mi SE 5.8 mph - N/A   Clear
4:57 AM 26.6 °F 20.0 °F 3.2 °F 37% 30.20 in 10.0 mi SE 5.8 mph - N/A   Scattered Clouds
5:17 AM 24.8 °F 16.9 °F 3.2 °F 40% 30.20 in 10.0 mi SE 6.9 mph - N/A   Clear
5:37 AM 26.6 °F 20.0 °F 5.0 °F 40% 30.20 in 10.0 mi SE 5.8 mph - N/A   Clear
5:57 AM 26.6 °F 19.1 °F 5.0 °F 40% 30.21 in 10.0 mi SE 6.9 mph - N/A   Mostly Cloudy
6:17 AM 26.6 °F 20.0 °F 6.8 °F 43% 30.20 in 10.0 mi SE 5.8 mph - N/A   Overcast
6:37 AM 24.8 °F 17.9 °F 6.8 °F 46% 30.20 in 10.0 mi ESE 5.8 mph - N/A   Overcast
6:57 AM 26.6 °F 20.0 °F 6.8 °F 43% 30.20 in 10.0 mi SE 5.8 mph - N/A   Mostly Cloudy
7:17 AM 24.8 °F 17.9 °F 6.8 °F 46% 30.20 in 10.0 mi ESE 5.8 mph - N/A   Mostly Cloudy
7:39 AM 24.8 °F 16.9 °F 8.6 °F 50% 30.20 in 10.0 mi SE 6.9 mph - N/A   Scattered Clouds
7:58 AM 26.6 °F 20.0 °F 8.6 °F 47% 30.19 in 10.0 mi SE 5.8 mph - N/A   Scattered Clouds
8:17 AM 26.6 °F 20.0 °F 8.6 °F 47% 30.20 in 10.0 mi SE 5.8 mph - N/A   Scattered Clouds
8:37 AM 26.6 °F 21.2 °F 10.4 °F 51% 30.19 in 10.0 mi SE 4.6 mph - N/A   Clear
8:57 AM 28.4 °F 23.3 °F 10.4 °F 47% 30.19 in 10.0 mi ESE 4.6 mph - N/A   Mostly Cloudy
9:17 AM 30.2 °F 24.3 °F 12.2 °F 47% 30.18 in 10.0 mi SE 5.8 mph - N/A   Mostly Cloudy
9:37 AM 32.0 °F 27.5 °F 12.2 °F 44% 30.18 in 10.0 mi SE 4.6 mph - N/A   Mostly Cloudy
9:57 AM 33.8 °F 30.8 °F 12.2 °F 41% 30.18 in 10.0 mi ESE 3.5 mph - N/A   Scattered Clouds
10:17 AM 35.6 °F - 14.0 °F 41% 30.17 in 10.0 mi Calm Calm - N/A   Clear
10:37 AM 35.6 °F - 14.0 °F 41% 30.16 in 10.0 mi Calm Calm - N/A   Clear
10:57 AM 39.2 °F - 15.8 °F 39% 30.16 in 10.0 mi Calm Calm - N/A   Scattered Clouds
11:17 AM 39.2 °F - 15.8 °F 39% 30.15 in 10.0 mi Calm Calm - N/A   Overcast
11:37 AM 39.2 °F - 14.0 °F 36% 30.14 in 10.0 mi Calm Calm - N/A   Mostly Cloudy
11:57 AM 41.0 °F - 14.0 °F 33% 30.14 in 10.0 mi Calm Calm - N/A   Scattered Clouds
12:17 PM 42.8 °F 39.3 °F 14.0 °F 31% 30.13 in 10.0 mi West 5.8 mph - N/A   Mostly Cloudy
12:57 PM 42.8 °F 39.3 °F 15.8 °F 34% 30.12 in 10.0 mi West 5.8 mph - N/A   Overcast
1:37 PM 42.8 °F 38.6 °F 15.8 °F 34% 30.10 in 10.0 mi WSW 6.9 mph - N/A   Overcast
1:57 PM 42.8 °F 39.3 °F 15.8 °F 34% 30.09 in 10.0 mi West 5.8 mph - N/A   Overcast
2:17 PM 42.8 °F 41.1 °F 14.0 °F 31% 30.08 in 10.0 mi SW 3.5 mph - N/A   Overcast
2:39 PM 41.0 °F - 15.8 °F 36% 30.07 in 10.0 mi Calm Calm - N/A   Overcast
2:59 PM 41.0 °F 39.0 °F 15.8 °F 36% 30.06 in 10.0 mi SE 3.5 mph - N/A   Overcast
3:17 PM 42.8 °F 41.1 °F 15.8 °F 34% 30.06 in 10.0 mi NNW 3.5 mph - N/A   Overcast
3:37 PM 39.2 °F 34.2 °F 17.6 °F 42% 30.07 in 10.0 mi NW 6.9 mph - N/A   Overcast
3:57 PM 39.2 °F 35.9 °F 19.4 °F 45% 30.07 in 10.0 mi NNW 4.6 mph - N/A   Overcast
4:19 PM 39.2 °F 37.0 °F 19.4 °F 45% 30.06 in 10.0 mi North 3.5 mph - N/A   Overcast
4:39 PM 39.2 °F 33.6 °F 19.4 °F 45% 30.06 in 10.0 mi West 8.1 mph - N/A   Overcast
5:37 PM 37.4 °F 32.1 °F 21.2 °F 52% 30.06 in 10.0 mi WNW 6.9 mph - N/A   Overcast
5:57 PM 35.6 °F 31.7 °F 21.2 °F 56% 30.06 in 10.0 mi West 4.6 mph - N/A   Overcast
6:17 PM 35.6 °F 29.9 °F 21.2 °F 56% 30.06 in 10.0 mi West 6.9 mph - N/A   Overcast
6:37 PM 35.6 °F 28.6 °F 21.2 °F 56% 30.07 in 10.0 mi West 9.2 mph - N/A   Overcast
7:17 PM 33.8 °F 30.8 °F 23.0 °F 65% 30.07 in 10.0 mi South 3.5 mph - N/A   Overcast
7:37 PM 33.8 °F 29.6 °F 24.8 °F 70% 30.07 in 10.0 mi SE 4.6 mph - N/A   Overcast
7:57 PM 33.8 °F 29.6 °F 26.6 °F 75% 30.07 in 10.0 mi SSE 4.6 mph - N/A   Overcast
8:19 PM 33.8 °F 28.6 °F 26.6 °F 75% 30.08 in 10.0 mi ESE 5.8 mph - N/A   Overcast
8:37 PM 32.0 °F 25.6 °F 26.6 °F 80% 30.08 in 7.0 mi ESE 6.9 mph - N/A Snow Snow
8:57 PM 32.0 °F 27.5 °F 28.4 °F 87% 30.08 in 10.0 mi East 4.6 mph - N/A   Overcast
9:17 PM 32.0 °F 28.7 °F 28.4 °F 87% 30.08 in 10.0 mi East 3.5 mph - N/A   Overcast
9:39 PM 32.0 °F - 28.4 °F 87% 30.08 in 10.0 mi Calm Calm - N/A Snow Light Snow
9:59 PM 32.0 °F - 28.4 °F 87% 30.08 in 10.0 mi Calm Calm - N/A   Overcast
10:17 PM 30.2 °F 26.7 °F 28.4 °F 93% 30.08 in 10.0 mi ESE 3.5 mph - N/A   Overcast
10:37 PM 30.2 °F 26.7 °F 28.4 °F 93% 30.08 in 10.0 mi ESE 3.5 mph - N/A   Overcast
10:59 PM 30.2 °F - 28.4 °F 93% 30.08 in 10.0 mi Calm Calm - N/A   Mostly Cloudy
11:17 PM 30.2 °F 26.7 °F 28.4 °F 93% 30.08 in 10.0 mi ESE 3.5 mph - N/A   Mostly Cloudy
11:37 PM 30.2 °F 25.4 °F 28.4 °F 93% 30.07 in 10.0 mi SE 4.6 mph - N/A   Overcast
11:57 PM 30.2 °F 26.7 °F 28.4 °F 93% 30.07 in 10.0 mi SE 3.5 mph - N/A   Mostly Cloudy